Time,TemperatureF,DewpointF,PressureIn,WindDirection,WindDirectionDegrees,WindSpeedMPH,WindSpeedGustMPH,Humidity,HourlyPrecipIn,Conditions,Clouds,dailyrainin,SoftwareType,DateUTC
2013-02-25 00:00:00,23.8,20.2,30.09,South,189,0.0,0.0,86,0.00,CLR,,0.00,WeatherDisplay:10.37,2013-02-25 06:00:00,
2013-02-25 00:05:00,23.6,20.0,30.09,South,189,0.0,0.0,86,0.00,FEW,,0.00,WeatherDisplay:10.37,2013-02-25 06:05:00,
2013-02-25 00:10:00,23.4,20.1,30.09,SW,223,0.2,1.1,87,0.00,FEW,,0.00,WeatherDisplay:10.37,2013-02-25 06:10:00,
2013-02-25 00:15:00,23.4,20.1,30.08,SW,223,0.0,0.0,87,0.00,FEW,,0.00,WeatherDisplay:10.37,2013-02-25 06:15:00,
2013-02-25 00:20:00,23.4,20.1,30.09,SW,223,0.0,0.0,87,0.00,FEW,,0.00,WeatherDisplay:10.37,2013-02-25 06:20:00,
2013-02-25 00:25:00,23.1,19.8,30.09,SW,223,0.0,0.0,87,0.00,FEW,,0.00,WeatherDisplay:10.37,2013-02-25 06:25:00,
2013-02-25 00:30:00,23.2,20.2,30.09,SSW,199,1.8,3.5,88,0.00,FEW,,0.00,WeatherDisplay:10.37,2013-02-25 06:30:00,
2013-02-25 00:35:00,23.4,20.4,30.09,WNW,287,0.0,0.0,88,0.00,FEW,,0.00,WeatherDisplay:10.37,2013-02-25 06:35:00,
2013-02-25 00:40:00,23.6,20.6,30.09,WNW,287,0.0,0.0,88,0.00,FEW,,0.00,WeatherDisplay:10.37,2013-02-25 06:40:00,
2013-02-25 00:45:00,23.7,20.7,30.09,SSW,192,0.4,3.5,88,0.00,FEW,,0.00,WeatherDisplay:10.37,2013-02-25 06:45:00,
2013-02-25 00:50:00,23.9,20.9,30.09,SW,236,0.0,0.0,88,0.00,FEW,,0.00,WeatherDisplay:10.37,2013-02-25 06:50:00,
2013-02-25 00:55:00,23.8,20.8,30.09,SW,236,0.0,0.0,88,0.00,FEW,,0.00,WeatherDisplay:10.37,2013-02-25 06:55:00,
2013-02-25 01:00:00,23.3,20.3,30.09,SW,236,0.0,0.0,88,0.00,FEW,,0.00,WeatherDisplay:10.37,2013-02-25 07:00:00,
2013-02-25 01:05:00,23.1,20.1,30.09,SW,236,0.0,0.0,88,0.00,CLR,,0.00,WeatherDisplay:10.37,2013-02-25 07:05:00,
2013-02-25 01:10:00,23.1,20.1,30.09,SW,236,0.0,0.0,88,0.00,CLR,,0.00,WeatherDisplay:10.37,2013-02-25 07:10:00,
2013-02-25 01:15:00,22.8,20.0,30.09,SW,236,0.0,0.0,89,0.00,CLR,,0.00,WeatherDisplay:10.37,2013-02-25 07:15:00,
2013-02-25 01:20:00,22.9,20.4,30.09,SW,236,0.0,0.0,90,0.00,CLR,,0.00,WeatherDisplay:10.37,2013-02-25 07:20:00,
2013-02-25 01:25:00,22.8,20.3,30.09,WSW,244,0.6,1.0,90,0.00,CLR,,0.00,WeatherDisplay:10.37,2013-02-25 07:25:00,
2013-02-25 01:30:00,23.1,20.6,30.09,South,177,0.0,0.0,90,0.00,CLR,,0.00,WeatherDisplay:10.37,2013-02-25 07:30:00,
2013-02-25 01:35:00,23.1,20.6,30.09,SSW,213,0.0,0.0,90,0.00,CLR,,0.00,WeatherDisplay:10.37,2013-02-25 07:35:00,
2013-02-25 01:40:00,23.2,20.7,30.09,SSW,212,0.6,1.1,90,0.00,CLR,,0.00,WeatherDisplay:10.37,2013-02-25 07:40:00,
2013-02-25 01:45:00,23.0,20.5,30.09,SSW,212,0.0,0.0,90,0.00,CLR,,0.00,WeatherDisplay:10.37,2013-02-25 07:45:00,
2013-02-25 01:50:00,22.8,20.3,30.09,SSW,212,0.0,0.0,90,0.00,CLR,,0.00,WeatherDisplay:10.37,2013-02-25 07:50:00,
2013-02-25 01:55:00,22.6,20.1,30.09,SSW,212,0.0,0.0,90,0.00,CLR,,0.00,WeatherDisplay:10.37,2013-02-25 07:55:00,
2013-02-25 02:00:00,22.5,20.0,30.09,SSW,212,0.0,0.0,90,0.00,CLR,,0.00,WeatherDisplay:10.37,2013-02-25 08:00:00,
2013-02-25 02:05:00,22.2,20.0,30.09,SSW,212,0.0,0.0,91,0.00,CLR,,0.00,WeatherDisplay:10.37,2013-02-25 08:05:00,
2013-02-25 02:10:00,21.9,19.7,30.09,SSW,212,0.0,0.0,91,0.00,CLR,,0.00,WeatherDisplay:10.37,2013-02-25 08:10:00,
2013-02-25 02:15:00,21.6,19.4,30.09,SSW,212,0.0,0.0,91,0.00,CLR,,0.00,WeatherDisplay:10.37,2013-02-25 08:15:00,
2013-02-25 02:20:00,21.4,19.4,30.09,SSW,212,0.0,0.0,92,0.00,CLR,,0.00,WeatherDisplay:10.37,2013-02-25 08:20:00,
2013-02-25 02:25:00,21.1,19.1,30.09,SSW,212,0.0,0.0,92,0.00,CLR,,0.00,WeatherDisplay:10.37,2013-02-25 08:25:00,
2013-02-25 02:30:00,20.9,18.9,30.09,SSW,212,0.0,0.0,92,0.00,CLR,,0.00,WeatherDisplay:10.37,2013-02-25 08:30:00,
2013-02-25 02:35:00,20.7,18.7,30.08,SSW,212,0.0,0.0,92,0.00,CLR,,0.00,WeatherDisplay:10.37,2013-02-25 08:35:00,
2013-02-25 02:40:00,20.6,18.9,30.08,SSW,212,0.0,0.0,93,0.00,CLR,,0.00,WeatherDisplay:10.37,2013-02-25 08:40:00,
2013-02-25 02:45:00,20.4,18.9,30.08,SSW,212,0.0,0.0,94,0.00,CLR,,0.00,WeatherDisplay:10.37,2013-02-25 08:45:00,
2013-02-25 02:50:00,20.2,18.8,30.08,SSW,212,0.0,0.0,94,0.00,CLR,,0.00,WeatherDisplay:10.37,2013-02-25 08:50:00,
2013-02-25 02:55:00,20.5,19.5,30.08,SSW,212,0.0,0.0,96,0.00,CLR,,0.00,WeatherDisplay:10.37,2013-02-25 08:55:00,
2013-02-25 03:00:00,20.9,19.9,30.08,SSW,212,0.0,0.0,96,0.00,CLR,,0.00,WeatherDisplay:10.37,2013-02-25 09:00:00,
2013-02-25 03:05:00,21.0,20.0,30.08,SSW,212,0.0,0.0,96,0.00,CLR,,0.00,WeatherDisplay:10.37,2013-02-25 09:05:00,
2013-02-25 03:10:00,20.9,19.9,30.08,SSW,212,0.0,0.0,96,0.00,CLR,,0.00,WeatherDisplay:10.37,2013-02-25 09:10:00,
2013-02-25 03:15:00,20.6,19.4,30.08,ENE,69,0.0,0.0,95,0.00,CLR,,0.00,WeatherDisplay:10.37,2013-02-25 09:15:00,
2013-02-25 03:20:00,20.2,19.2,30.08,ENE,69,0.0,0.0,96,0.00,CLR,,0.00,WeatherDisplay:10.37,2013-02-25 09:20:00,
2013-02-25 03:25:00,19.7,18.7,30.07,ENE,69,0.0,0.0,96,0.00,CLR,,0.00,WeatherDisplay:10.37,2013-02-25 09:25:00,
2013-02-25 03:30:00,19.6,18.6,30.07,ENE,69,0.0,0.0,96,0.00,CLR,,0.00,WeatherDisplay:10.37,2013-02-25 09:30:00,
2013-02-25 03:35:00,19.4,18.4,30.07,ENE,69,0.0,0.0,96,0.00,CLR,,0.00,WeatherDisplay:10.37,2013-02-25 09:35:00,
2013-02-25 03:40:00,19.4,18.7,30.08,ENE,69,0.0,0.0,97,0.00,CLR,,0.00,WeatherDisplay:10.37,2013-02-25 09:40:00,
2013-02-25 03:45:00,19.4,18.7,30.08,ENE,69,0.0,0.0,97,0.00,CLR,,0.00,WeatherDisplay:10.37,2013-02-25 09:45:00,
2013-02-25 03:50:00,19.4,18.9,30.08,ENE,69,0.0,0.0,98,0.00,CLR,,0.00,WeatherDisplay:10.37,2013-02-25 09:50:00,
2013-02-25 03:55:00,19.8,19.3,30.08,ENE,69,0.0,0.0,98,0.00,CLR,,0.00,WeatherDisplay:10.37,2013-02-25 09:55:00,
2013-02-25 04:00:00,20.2,20.0,30.07,ENE,69,0.0,0.0,99,0.00,CLR,,0.00,WeatherDisplay:10.37,2013-02-25 10:00:00,
2013-02-25 04:05:00,20.5,20.3,30.08,ENE,69,0.0,0.0,99,0.00,BKN,,0.00,WeatherDisplay:10.37,2013-02-25 10:05:00,
2013-02-25 04:10:00,20.0,19.5,30.08,ENE,69,0.0,0.0,98,0.00,BKN,,0.00,WeatherDisplay:10.37,2013-02-25 10:10:00,
2013-02-25 04:15:00,19.6,19.4,30.08,ENE,69,0.0,0.0,99,0.00,BKN,,0.00,WeatherDisplay:10.37,2013-02-25 10:15:00,
2013-02-25 04:20:00,19.5,19.3,30.08,ENE,69,0.0,0.0,99,0.00,BKN,,0.00,WeatherDisplay:10.37,2013-02-25 10:20:00,
2013-02-25 04:25:00,19.4,19.2,30.08,ENE,69,0.0,0.0,99,0.00,BKN,,0.00,WeatherDisplay:10.37,2013-02-25 10:25:00,
2013-02-25 04:30:00,19.9,19.7,30.08,ENE,69,0.0,0.0,99,0.00,BKN,,0.00,WeatherDisplay:10.37,2013-02-25 10:30:00,
2013-02-25 04:35:00,20.2,20.2,30.09,ENE,69,0.0,0.0,100,0.00,BKN,,0.00,WeatherDisplay:10.37,2013-02-25 10:35:00,
2013-02-25 04:40:00,20.5,20.5,30.09,ENE,69,0.0,0.0,100,0.00,BKN,,0.00,WeatherDisplay:10.37,2013-02-25 10:40:00,
2013-02-25 04:45:00,20.7,20.7,30.09,ENE,69,0.0,0.0,100,0.00,BKN,,0.00,WeatherDisplay:10.37,2013-02-25 10:45:00,
2013-02-25 04:50:00,21.0,21.0,30.09,ENE,69,0.0,0.0,100,0.00,BKN,,0.00,WeatherDisplay:10.37,2013-02-25 10:50:00,
2013-02-25 04:55:00,21.2,21.2,30.08,ENE,69,0.0,0.0,100,0.00,BKN,,0.00,WeatherDisplay:10.37,2013-02-25 10:55:00,
2013-02-25 05:00:00,21.0,21.0,30.09,ENE,69,0.0,0.0,100,0.00,BKN,,0.00,WeatherDisplay:10.37,2013-02-25 11:00:00,
2013-02-25 05:05:00,20.6,20.6,30.10,ENE,69,0.0,0.0,100,0.00,CLR,,0.00,WeatherDisplay:10.37,2013-02-25 11:05:00,
2013-02-25 05:10:00,20.3,20.3,30.10,ENE,69,0.0,0.0,100,0.00,CLR,,0.00,WeatherDisplay:10.37,2013-02-25 11:10:00,
2013-02-25 05:15:00,20.2,20.2,30.10,ENE,69,0.0,0.0,100,0.00,CLR,,0.00,WeatherDisplay:10.37,2013-02-25 11:15:00,
2013-02-25 05:20:00,20.1,20.1,30.10,ENE,69,0.0,0.0,100,0.00,CLR,,0.00,WeatherDisplay:10.37,2013-02-25 11:20:00,
2013-02-25 05:25:00,20.0,20.0,30.09,ENE,69,0.0,0.0,100,0.00,CLR,,0.00,WeatherDisplay:10.37,2013-02-25 11:25:00,
2013-02-25 05:30:00,19.6,19.6,30.10,ENE,69,0.0,0.0,100,0.00,CLR,,0.00,WeatherDisplay:10.37,2013-02-25 11:30:00,
2013-02-25 05:35:00,19.5,19.5,30.10,ENE,69,0.0,0.0,100,0.00,CLR,,0.00,WeatherDisplay:10.37,2013-02-25 11:35:00,
2013-02-25 05:40:00,19.8,19.8,30.11,ENE,69,0.0,0.0,100,0.00,CLR,,0.00,WeatherDisplay:10.37,2013-02-25 11:40:00,
2013-02-25 05:45:00,20.2,20.2,30.11,ENE,69,0.0,0.0,100,0.00,CLR,,0.00,WeatherDisplay:10.37,2013-02-25 11:45:00,
2013-02-25 05:50:00,20.4,20.4,30.11,ENE,69,0.0,0.0,100,0.00,CLR,,0.00,WeatherDisplay:10.37,2013-02-25 11:50:00,
2013-02-25 05:55:00,20.8,20.8,30.11,ENE,69,0.0,0.0,100,0.00,CLR,,0.00,WeatherDisplay:10.37,2013-02-25 11:55:00,
2013-02-25 06:00:00,20.9,20.9,30.11,ENE,69,0.0,0.0,100,0.00,CLR,,0.00,WeatherDisplay:10.37,2013-02-25 12:00:00,
2013-02-25 06:05:00,21.1,21.1,30.11,ENE,69,0.0,0.0,100,0.00,FEW,,0.00,WeatherDisplay:10.37,2013-02-25 12:05:00,
2013-02-25 06:10:00,21.4,21.4,30.10,ENE,69,0.0,0.0,100,0.00,FEW,,0.00,WeatherDisplay:10.37,2013-02-25 12:10:00,
2013-02-25 06:15:00,21.3,21.3,30.10,ENE,69,0.0,0.0,100,0.00,FEW,,0.00,WeatherDisplay:10.37,2013-02-25 12:15:00,
2013-02-25 06:20:00,21.2,21.2,30.09,ENE,69,0.0,0.0,100,0.00,FEW,,0.00,WeatherDisplay:10.37,2013-02-25 12:20:00,
2013-02-25 06:25:00,20.9,20.9,30.09,ENE,69,0.0,0.0,100,0.00,FEW,,0.00,WeatherDisplay:10.37,2013-02-25 12:25:00,
2013-02-25 06:30:00,20.2,20.2,30.09,ENE,69,0.0,0.0,100,0.00,FEW,,0.00,WeatherDisplay:10.37,2013-02-25 12:30:00,
2013-02-25 06:35:00,19.2,19.2,30.09,ENE,69,0.0,0.0,100,0.00,FEW,,0.00,WeatherDisplay:10.37,2013-02-25 12:35:00,
2013-02-25 06:56:00,18.9,18.9,30.09,ENE,69,0.0,0.0,100,0.00,FEW,,0.00,WeatherDisplay:10.37,2013-02-25 12:56:00,
2013-02-25 07:02:00,19.3,19.3,30.09,ENE,69,0.0,0.0,100,0.00,SCT,,0.00,WeatherDisplay:10.37,2013-02-25 13:02:00,
2013-02-25 07:07:00,20.1,20.1,30.09,ENE,69,0.0,0.0,100,0.00,SCT,,0.00,WeatherDisplay:10.37,2013-02-25 13:07:00,
2013-02-25 07:12:00,20.5,20.5,30.09,ENE,69,0.0,0.0,100,0.00,SCT,,0.00,WeatherDisplay:10.37,2013-02-25 13:12:00,
2013-02-25 07:17:00,20.8,20.8,30.09,ENE,69,0.0,0.0,100,0.00,SCT,,0.00,WeatherDisplay:10.37,2013-02-25 13:17:00,
2013-02-25 07:22:00,21.6,21.6,30.09,ENE,69,0.0,0.0,100,0.00,SCT,,0.00,WeatherDisplay:10.37,2013-02-25 13:22:00,
2013-02-25 07:27:00,22.0,22.0,30.09,ENE,69,0.0,0.0,100,0.00,SCT,,0.00,WeatherDisplay:10.37,2013-02-25 13:27:00,
2013-02-25 07:32:00,22.1,22.1,30.10,ENE,69,0.0,0.0,100,0.00,SCT,,0.00,WeatherDisplay:10.37,2013-02-25 13:32:00,
2013-02-25 07:37:00,22.1,22.1,30.10,ENE,69,0.0,0.0,100,0.00,SCT,,0.00,WeatherDisplay:10.37,2013-02-25 13:37:00,
2013-02-25 07:42:00,22.2,22.2,30.10,ENE,69,0.0,0.0,100,0.00,SCT,,0.00,WeatherDisplay:10.37,2013-02-25 13:42:00,
2013-02-25 07:47:00,22.2,22.2,30.10,ENE,69,0.0,0.0,100,0.00,SCT,,0.00,WeatherDisplay:10.37,2013-02-25 13:47:00,
2013-02-25 07:52:00,22.2,22.2,30.10,ENE,69,0.0,0.0,100,0.00,SCT,,0.00,WeatherDisplay:10.37,2013-02-25 13:52:00,
2013-02-25 07:57:00,22.4,22.4,30.10,ENE,69,0.0,0.0,100,0.00,SCT,,0.00,WeatherDisplay:10.37,2013-02-25 13:57:00,
2013-02-25 08:02:00,22.8,22.8,30.11,ENE,69,0.0,0.0,100,0.00,SCT,,0.00,WeatherDisplay:10.37,2013-02-25 14:02:00,
2013-02-25 08:07:00,23.4,23.4,30.11,ENE,69,0.0,0.0,100,0.00,SCT,,0.00,WeatherDisplay:10.37,2013-02-25 14:07:00,
2013-02-25 08:13:00,24.1,24.1,30.11,SE,136,0.2,2.4,100,0.00,SCT,,0.00,WeatherDisplay:10.37,2013-02-25 14:13:00,
2013-02-25 08:18:00,25.1,25.1,30.11,SE,127,0.0,0.0,100,0.00,SCT,,0.00,WeatherDisplay:10.37,2013-02-25 14:18:00,
2013-02-25 08:23:00,26.2,26.2,30.11,SE,127,0.0,0.0,100,0.00,SCT,,0.00,WeatherDisplay:10.37,2013-02-25 14:23:00,
2013-02-25 08:28:00,26.3,24.8,30.10,ENE,72,2.5,3.5,94,0.00,SCT,,0.00,WeatherDisplay:10.37,2013-02-25 14:28:00,
2013-02-25 08:33:00,26.6,25.4,30.10,ESE,106,1.2,2.9,95,0.00,SCT,,0.00,WeatherDisplay:10.37,2013-02-25 14:33:00,
2013-02-25 08:38:00,26.9,25.4,30.10,SE,130,0.3,1.4,94,0.00,SCT,,0.00,WeatherDisplay:10.37,2013-02-25 14:38:00,
2013-02-25 08:43:00,26.9,24.9,30.11,ESE,113,0.0,0.0,92,0.00,SCT,,0.00,WeatherDisplay:10.37,2013-02-25 14:43:00,
2013-02-25 08:48:00,27.4,25.6,30.11,East,92,0.2,0.7,93,0.00,SCT,,0.00,WeatherDisplay:10.37,2013-02-25 14:48:00,
2013-02-25 08:53:00,27.9,26.1,30.11,South,182,1.2,3.5,93,0.00,SCT,,0.00,WeatherDisplay:10.37,2013-02-25 14:53:00,
2013-02-25 08:58:00,28.4,26.1,30.11,SSE,150,1.8,2.3,91,0.00,SCT,,0.00,WeatherDisplay:10.37,2013-02-25 14:58:00,
2013-02-25 09:03:00,28.6,26.0,30.11,SSE,167,2.8,4.6,90,0.00,FEW,,0.00,WeatherDisplay:10.37,2013-02-25 15:03:00,
2013-02-25 09:08:00,29.0,26.4,30.11,ESE,119,2.1,2.3,90,0.00,FEW,,0.00,WeatherDisplay:10.37,2013-02-25 15:08:00,
2013-02-25 09:13:00,29.3,26.2,30.11,ENE,57,1.8,2.3,88,0.00,FEW,,0.00,WeatherDisplay:10.37,2013-02-25 15:13:00,
2013-02-25 09:18:00,29.5,26.1,30.10,SE,143,1.1,2.3,87,0.00,FEW,,0.00,WeatherDisplay:10.37,2013-02-25 15:18:00,
2013-02-25 09:23:00,29.8,26.1,30.10,SE,134,0.7,2.3,86,0.00,FEW,,0.00,WeatherDisplay:10.37,2013-02-25 15:23:00,
2013-02-25 09:28:00,29.6,25.6,30.09,ENE,75,1.1,2.3,85,0.00,FEW,,0.00,WeatherDisplay:10.37,2013-02-25 15:28:00,
2013-02-25 09:33:00,29.8,26.1,30.09,ESE,122,0.1,1.2,86,0.00,FEW,,0.00,WeatherDisplay:10.37,2013-02-25 15:33:00,
2013-02-25 09:38:00,30.5,27.1,30.09,East,95,1.3,3.5,87,0.00,FEW,,0.00,WeatherDisplay:10.37,2013-02-25 15:38:00,
2013-02-25 09:43:00,31.4,28.0,30.09,SSE,160,2.3,4.8,87,0.00,FEW,,0.00,WeatherDisplay:10.37,2013-02-25 15:43:00,
2013-02-25 09:48:00,33.0,29.0,30.09,SSW,208,2.1,3.5,85,0.00,FEW,,0.00,WeatherDisplay:10.37,2013-02-25 15:48:00,
2013-02-25 09:53:00,33.1,27.0,30.09,South,184,6.5,8.8,78,0.00,FEW,,0.00,WeatherDisplay:10.37,2013-02-25 15:53:00,
2013-02-25 09:58:00,33.1,27.0,30.09,SSW,202,3.7,5.8,78,0.00,FEW,,0.00,WeatherDisplay:10.37,2013-02-25 15:58:00,
2013-02-25 10:03:00,32.9,26.8,30.08,SW,216,3.5,6.9,78,0.00,BKN,,0.00,WeatherDisplay:10.37,2013-02-25 16:03:00,
2013-02-25 10:08:00,33.2,27.1,30.09,South,172,4.6,6.9,78,0.00,BKN,,0.00,WeatherDisplay:10.37,2013-02-25 16:08:00,
2013-02-25 10:13:00,34.0,27.5,30.09,ESE,113,3.5,5.8,77,0.00,BKN,,0.00,WeatherDisplay:10.37,2013-02-25 16:13:00,
2013-02-25 10:18:00,34.2,26.4,30.09,SSE,148,4.5,7.6,73,0.00,BKN,,0.00,WeatherDisplay:10.37,2013-02-25 16:18:00,
2013-02-25 10:23:00,34.8,27.0,30.09,WSW,250,2.5,5.8,73,0.00,BKN,,0.00,WeatherDisplay:10.37,2013-02-25 16:23:00,
2013-02-25 10:28:00,35.2,27.4,30.10,ESE,120,2.9,4.6,73,0.00,BKN,,0.00,WeatherDisplay:10.37,2013-02-25 16:28:00,
2013-02-25 10:33:00,35.4,26.6,30.10,South,187,5.2,6.9,70,0.00,BKN,,0.00,WeatherDisplay:10.37,2013-02-25 16:33:00,
2013-02-25 10:38:00,35.2,26.7,30.10,WSW,237,0.7,3.5,71,0.00,BKN,,0.00,WeatherDisplay:10.37,2013-02-25 16:38:00,
2013-02-25 10:43:00,35.1,26.3,30.10,SSW,199,3.2,5.8,70,0.00,BKN,,0.00,WeatherDisplay:10.37,2013-02-25 16:43:00,
2013-02-25 10:48:00,35.0,26.2,30.10,South,178,4.6,5.8,70,0.00,BKN,,0.00,WeatherDisplay:10.37,2013-02-25 16:48:00,
2013-02-25 10:53:00,34.9,26.4,30.10,South,171,2.4,8.1,71,0.00,BKN,,0.00,WeatherDisplay:10.37,2013-02-25 16:53:00,
2013-02-25 10:58:00,35.2,26.7,30.11,SSW,212,4.2,6.9,71,0.00,BKN,,0.00,WeatherDisplay:10.37,2013-02-25 16:58:00,
2013-02-25 11:03:00,35.0,26.2,30.10,SW,218,5.4,6.9,70,0.00,BKN,,0.00,WeatherDisplay:10.37,2013-02-25 17:03:00,
2013-02-25 11:08:00,34.7,26.6,30.10,SE,132,3.7,5.8,72,0.00,BKN,,0.00,WeatherDisplay:10.37,2013-02-25 17:08:00,
2013-02-25 11:13:00,35.0,26.9,30.10,SSE,168,0.1,2.3,72,0.00,BKN,,0.00,WeatherDisplay:10.37,2013-02-25 17:13:00,
2013-02-25 11:18:00,35.5,27.4,30.10,SSW,205,2.8,8.1,72,0.00,BKN,,0.00,WeatherDisplay:10.37,2013-02-25 17:18:00,
2013-02-25 11:23:00,36.0,27.2,30.10,WSW,242,0.6,3.5,70,0.00,BKN,,0.00,WeatherDisplay:10.37,2013-02-25 17:23:00,
2013-02-25 11:28:00,36.2,27.0,30.10,SSW,204,4.0,6.9,69,0.00,BKN,,0.00,WeatherDisplay:10.37,2013-02-25 17:28:00,
2013-02-25 11:33:00,36.5,27.6,30.10,SSW,195,0.1,3.5,70,0.00,BKN,,0.00,WeatherDisplay:10.37,2013-02-25 17:33:00,
2013-02-25 11:38:00,37.1,27.5,30.10,WSW,252,5.4,7.3,68,0.00,BKN,,0.00,WeatherDisplay:10.37,2013-02-25 17:38:00,
2013-02-25 11:43:00,37.4,28.2,30.10,SSW,205,2.8,4.6,69,0.00,BKN,,0.00,WeatherDisplay:10.37,2013-02-25 17:43:00,
2013-02-25 11:48:00,38.0,28.7,30.10,SW,228,0.0,0.0,69,0.00,BKN,,0.00,WeatherDisplay:10.37,2013-02-25 17:48:00,
2013-02-25 11:53:00,38.5,28.5,30.09,South,184,3.0,6.2,67,0.00,BKN,,0.00,WeatherDisplay:10.37,2013-02-25 17:53:00,
2013-02-25 11:58:00,38.3,27.9,30.09,SE,141,2.8,5.8,66,0.00,BKN,,0.00,WeatherDisplay:10.37,2013-02-25 17:58:00,
2013-02-25 12:03:00,37.9,27.5,30.09,SE,137,4.5,7.0,66,0.00,BKN,,0.00,WeatherDisplay:10.37,2013-02-25 18:03:00,
2013-02-25 12:08:00,37.6,27.3,30.09,SW,226,4.8,6.9,66,0.00,BKN,,0.00,WeatherDisplay:10.37,2013-02-25 18:08:00,
2013-02-25 12:13:00,37.5,27.2,30.09,ESE,102,1.7,8.1,66,0.00,BKN,,0.00,WeatherDisplay:10.37,2013-02-25 18:13:00,
2013-02-25 12:18:00,37.7,28.4,30.09,South,178,1.0,2.3,69,0.00,BKN,,0.00,WeatherDisplay:10.37,2013-02-25 18:18:00,
2013-02-25 12:23:00,38.3,27.9,30.09,SW,218,5.0,7.2,66,0.00,BKN,,0.00,WeatherDisplay:10.37,2013-02-25 18:23:00,
2013-02-25 12:28:00,38.6,28.2,30.08,SSW,208,2.6,5.8,66,0.00,BKN,,0.00,WeatherDisplay:10.37,2013-02-25 18:28:00,
2013-02-25 12:33:00,38.2,27.1,30.09,SE,137,5.3,9.2,64,0.00,BKN,,0.00,WeatherDisplay:10.37,2013-02-25 18:33:00,
2013-02-25 12:38:00,38.1,27.7,30.08,South,188,1.8,4.6,66,0.00,BKN,,0.00,WeatherDisplay:10.37,2013-02-25 18:38:00,
2013-02-25 12:43:00,38.3,27.2,30.08,SSE,163,3.8,8.1,64,0.00,BKN,,0.00,WeatherDisplay:10.37,2013-02-25 18:43:00,
2013-02-25 12:48:00,38.4,28.0,30.08,South,171,1.4,5.8,66,0.00,BKN,,0.00,WeatherDisplay:10.37,2013-02-25 18:48:00,
2013-02-25 12:53:00,38.0,27.3,30.08,SE,141,4.5,8.1,65,0.00,BKN,,0.00,WeatherDisplay:10.37,2013-02-25 18:53:00,
2013-02-25 12:58:00,38.1,27.7,30.08,SW,223,3.2,6.9,66,0.00,BKN,,0.00,WeatherDisplay:10.37,2013-02-25 18:58:00,
2013-02-25 13:03:00,38.8,28.8,30.07,SE,146,1.4,2.3,67,0.00,BKN,,0.00,WeatherDisplay:10.37,2013-02-25 19:03:00,
2013-02-25 13:08:00,39.1,27.6,30.07,South,181,2.6,6.9,63,0.00,BKN,,0.00,WeatherDisplay:10.37,2013-02-25 19:08:00,
2013-02-25 13:13:00,39.2,27.7,30.06,SSE,148,3.3,6.9,63,0.00,BKN,,0.00,WeatherDisplay:10.37,2013-02-25 19:13:00,
2013-02-25 13:18:00,39.5,27.5,30.06,South,178,5.0,8.1,62,0.00,BKN,,0.00,WeatherDisplay:10.37,2013-02-25 19:18:00,
2013-02-25 13:23:00,39.5,28.3,30.06,SW,228,3.6,7.2,64,0.00,BKN,,0.00,WeatherDisplay:10.37,2013-02-25 19:23:00,
2013-02-25 13:28:00,39.2,27.7,30.06,SSE,154,3.5,5.8,63,0.00,BKN,,0.00,WeatherDisplay:10.37,2013-02-25 19:28:00,
2013-02-25 13:33:00,38.6,27.8,30.06,South,170,3.1,6.9,65,0.00,BKN,,0.00,WeatherDisplay:10.37,2013-02-25 19:33:00,
2013-02-25 13:38:00,38.9,27.8,30.06,South,177,4.0,10.4,64,0.00,BKN,,0.00,WeatherDisplay:10.37,2013-02-25 19:38:00,
2013-02-25 13:43:00,39.4,28.2,30.05,SSE,154,2.7,6.9,64,0.00,BKN,,0.00,WeatherDisplay:10.37,2013-02-25 19:43:00,
2013-02-25 13:48:00,39.8,28.2,30.05,SSW,212,3.9,8.1,63,0.00,BKN,,0.00,WeatherDisplay:10.37,2013-02-25 19:48:00,
2013-02-25 13:53:00,39.9,28.7,30.05,SSE,161,1.9,3.5,64,0.00,BKN,,0.00,WeatherDisplay:10.37,2013-02-25 19:53:00,
2013-02-25 13:58:00,40.0,28.0,30.04,SE,133,3.8,5.8,62,0.00,BKN,,0.00,WeatherDisplay:10.37,2013-02-25 19:58:00,
2013-02-25 14:03:00,39.5,27.9,30.05,SSE,168,0.9,3.5,63,0.00,BKN,,0.00,WeatherDisplay:10.37,2013-02-25 20:03:00,
2013-02-25 14:08:00,39.1,27.2,30.04,SW,219,3.2,4.6,62,0.00,BKN,,0.00,WeatherDisplay:10.37,2013-02-25 20:08:00,
2013-02-25 14:13:00,38.5,26.6,30.04,SSE,153,4.1,6.9,62,0.00,BKN,,0.00,WeatherDisplay:10.37,2013-02-25 20:13:00,
2013-02-25 14:18:00,39.0,27.5,30.04,ESE,103,3.7,5.8,63,0.00,BKN,,0.00,WeatherDisplay:10.37,2013-02-25 20:18:00,
2013-02-25 14:23:00,39.4,27.5,30.04,WSW,254,5.3,9.2,62,0.00,BKN,,0.00,WeatherDisplay:10.37,2013-02-25 20:23:00,
2013-02-25 14:28:00,39.6,28.0,30.04,South,189,2.6,4.6,63,0.00,BKN,,0.00,WeatherDisplay:10.37,2013-02-25 20:28:00,
2013-02-25 14:33:00,40.1,27.7,30.04,SSW,199,0.7,2.3,61,0.00,BKN,,0.00,WeatherDisplay:10.37,2013-02-25 20:33:00,
2013-02-25 14:38:00,40.6,28.2,30.04,SSW,199,0.0,0.0,61,0.00,BKN,,0.00,WeatherDisplay:10.37,2013-02-25 20:38:00,
2013-02-25 14:43:00,40.6,27.4,30.04,NE,48,0.2,3.5,59,0.00,BKN,,0.00,WeatherDisplay:10.37,2013-02-25 20:43:00,
2013-02-25 14:48:00,40.7,27.5,30.05,ESE,112,1.3,3.5,59,0.00,BKN,,0.00,WeatherDisplay:10.37,2013-02-25 20:48:00,
2013-02-25 14:53:00,41.0,28.6,30.04,SSW,213,2.4,3.5,61,0.00,BKN,,0.00,WeatherDisplay:10.37,2013-02-25 20:53:00,
2013-02-25 14:58:00,41.2,28.4,30.04,SSE,168,0.0,0.0,60,0.00,BKN,,0.00,WeatherDisplay:10.37,2013-02-25 20:58:00,
2013-02-25 15:03:00,41.7,28.4,30.04,SSE,147,2.2,4.6,59,0.00,SCT,,0.00,WeatherDisplay:10.37,2013-02-25 21:03:00,
2013-02-25 15:08:00,42.0,29.1,30.05,West,268,0.0,0.0,60,0.00,SCT,,0.00,WeatherDisplay:10.37,2013-02-25 21:08:00,
2013-02-25 15:13:00,41.4,27.7,30.04,SSW,213,4.5,6.9,58,0.00,SCT,,0.00,WeatherDisplay:10.37,2013-02-25 21:13:00,
2013-02-25 15:18:00,41.0,27.8,30.04,NE,36,0.0,0.0,59,0.00,SCT,,0.00,WeatherDisplay:10.37,2013-02-25 21:18:00,
2013-02-25 15:23:00,40.7,27.9,30.04,SE,143,1.8,3.5,60,0.00,SCT,,0.00,WeatherDisplay:10.37,2013-02-25 21:23:00,
2013-02-25 15:28:00,40.4,28.0,30.05,SE,137,0.0,0.0,61,0.00,SCT,,0.00,WeatherDisplay:10.37,2013-02-25 21:28:00,
2013-02-25 15:33:00,40.7,28.3,30.04,West,260,0.3,1.5,61,0.00,SCT,,0.00,WeatherDisplay:10.37,2013-02-25 21:33:00,
2013-02-25 15:38:00,40.9,28.5,30.05,SSE,153,0.0,0.0,61,0.00,SCT,,0.00,WeatherDisplay:10.37,2013-02-25 21:38:00,
2013-02-25 15:43:00,41.1,28.3,30.05,SSE,153,0.2,0.0,60,0.00,SCT,,0.00,WeatherDisplay:10.37,2013-02-25 21:43:00,
2013-02-25 15:48:00,41.5,28.2,30.05,SE,144,1.4,3.5,59,0.00,SCT,,0.00,WeatherDisplay:10.37,2013-02-25 21:48:00,
2013-02-25 15:53:00,41.7,28.0,30.05,East,99,0.2,1.1,58,0.00,SCT,,0.00,WeatherDisplay:10.37,2013-02-25 21:53:00,
2013-02-25 15:58:00,41.2,27.9,30.04,East,99,0.0,0.0,59,0.00,SCT,,0.00,WeatherDisplay:10.37,2013-02-25 21:58:00,
2013-02-25 16:03:00,40.9,28.1,30.05,ESE,108,0.0,0.0,60,0.00,CLR,,0.00,WeatherDisplay:10.37,2013-02-25 22:03:00,
2013-02-25 16:08:00,40.7,27.5,30.05,East,93,1.5,2.3,59,0.00,CLR,,0.00,WeatherDisplay:10.37,2013-02-25 22:08:00,
2013-02-25 16:13:00,39.8,27.4,30.04,ESE,117,1.6,3.5,61,0.00,CLR,,0.00,WeatherDisplay:10.37,2013-02-25 22:13:00,
2013-02-25 16:18:00,39.6,27.6,30.04,ESE,106,0.0,0.0,62,0.00,CLR,,0.00,WeatherDisplay:10.37,2013-02-25 22:18:00,
2013-02-25 16:23:00,38.9,27.4,30.04,SE,129,1.7,2.5,63,0.00,CLR,,0.00,WeatherDisplay:10.37,2013-02-25 22:23:00,
2013-02-25 16:28:00,38.2,27.1,30.04,SE,130,0.8,2.4,64,0.00,CLR,,0.00,WeatherDisplay:10.37,2013-02-25 22:28:00,
2013-02-25 16:33:00,38.0,27.3,30.04,East,99,1.4,3.5,65,0.00,CLR,,0.00,WeatherDisplay:10.37,2013-02-25 22:33:00,
2013-02-25 16:38:00,38.2,27.5,30.04,ENE,67,0.7,2.3,65,0.00,CLR,,0.00,WeatherDisplay:10.37,2013-02-25 22:38:00,
2013-02-25 16:43:00,38.0,27.3,30.03,ENE,65,0.9,2.3,65,0.00,CLR,,0.00,WeatherDisplay:10.37,2013-02-25 22:43:00,
2013-02-25 16:48:00,37.7,27.4,30.03,ENE,62,0.0,1.1,66,0.00,CLR,,0.00,WeatherDisplay:10.37,2013-02-25 22:48:00,
2013-02-25 16:53:00,37.4,27.4,30.02,East,79,0.0,0.0,67,0.00,CLR,,0.00,WeatherDisplay:10.37,2013-02-25 22:53:00,
2013-02-25 16:58:00,37.2,27.2,30.02,East,95,0.4,1.1,67,0.00,CLR,,0.00,WeatherDisplay:10.37,2013-02-25 22:58:00,
2013-02-25 17:03:00,37.1,27.5,30.02,ESE,119,0.0,0.0,68,0.00,CLR,,0.00,WeatherDisplay:10.37,2013-02-25 23:03:00,
2013-02-25 17:08:00,37.0,27.4,30.02,ESE,119,0.0,0.0,68,0.00,CLR,,0.00,WeatherDisplay:10.37,2013-02-25 23:08:00,
2013-02-25 17:13:00,36.8,27.2,30.02,ESE,119,0.0,0.0,68,0.00,CLR,,0.00,WeatherDisplay:10.37,2013-02-25 23:13:00,
2013-02-25 17:18:00,36.6,27.0,30.02,ESE,119,0.0,0.0,68,0.00,CLR,,0.00,WeatherDisplay:10.37,2013-02-25 23:18:00,
2013-02-25 17:23:00,36.4,27.2,30.03,East,89,0.0,0.0,69,0.00,CLR,,0.00,WeatherDisplay:10.37,2013-02-25 23:23:00,
2013-02-25 17:28:00,36.1,26.9,30.03,East,89,0.0,0.0,69,0.00,CLR,,0.00,WeatherDisplay:10.37,2013-02-25 23:28:00,
2013-02-25 17:33:00,35.7,26.5,30.03,East,89,0.0,0.0,69,0.00,CLR,,0.00,WeatherDisplay:10.37,2013-02-25 23:33:00,
2013-02-25 17:38:00,35.7,26.5,30.03,East,89,0.0,0.0,69,0.00,CLR,,0.00,WeatherDisplay:10.37,2013-02-25 23:38:00,
2013-02-25 17:43:00,35.4,26.6,30.03,East,89,0.0,0.0,70,0.00,CLR,,0.00,WeatherDisplay:10.37,2013-02-25 23:43:00,
2013-02-25 17:48:00,35.0,26.2,30.02,East,89,0.0,0.0,70,0.00,CLR,,0.00,WeatherDisplay:10.37,2013-02-25 23:48:00,
2013-02-25 17:53:00,34.3,25.9,30.02,East,89,0.0,0.0,71,0.00,CLR,,0.00,WeatherDisplay:10.37,2013-02-25 23:53:00,
2013-02-25 17:58:00,34.0,25.9,30.02,East,89,0.0,0.0,72,0.00,CLR,,0.00,WeatherDisplay:10.37,2013-02-25 23:58:00,
2013-02-25 18:03:00,33.8,26.4,30.02,East,89,0.0,0.0,74,0.00,CLR,,0.00,WeatherDisplay:10.37,2013-02-26 00:03:00,
2013-02-25 18:08:00,33.3,26.2,30.02,East,89,0.0,0.0,75,0.00,CLR,,0.00,WeatherDisplay:10.37,2013-02-26 00:08:00,
2013-02-25 18:13:00,32.9,26.2,30.03,East,89,0.0,0.0,76,0.00,CLR,,0.00,WeatherDisplay:10.37,2013-02-26 00:13:00,
2013-02-25 18:18:00,32.4,26.0,30.03,East,89,0.0,0.0,77,0.00,CLR,,0.00,WeatherDisplay:10.37,2013-02-26 00:18:00,
2013-02-25 18:23:00,32.0,25.9,30.03,East,89,0.0,0.0,78,0.00,CLR,,0.00,WeatherDisplay:10.37,2013-02-26 00:23:00,
2013-02-25 18:28:00,31.9,26.1,30.03,East,89,0.0,0.0,79,0.00,CLR,,0.00,WeatherDisplay:10.37,2013-02-26 00:28:00,
2013-02-25 18:33:00,31.8,26.3,30.03,East,89,0.0,0.0,80,0.00,CLR,,0.00,WeatherDisplay:10.37,2013-02-26 00:33:00,
2013-02-25 18:38:00,31.3,25.8,30.03,East,89,0.0,0.0,80,0.00,CLR,,0.00,WeatherDisplay:10.37,2013-02-26 00:38:00,
2013-02-25 18:43:00,31.1,26.0,30.03,East,89,0.0,0.0,81,0.00,CLR,,0.00,WeatherDisplay:10.37,2013-02-26 00:43:00,
2013-02-25 18:48:00,30.9,26.1,30.03,East,89,0.0,0.0,82,0.00,CLR,,0.00,WeatherDisplay:10.37,2013-02-26 00:48:00,
2013-02-25 18:53:00,30.9,26.3,30.04,East,89,0.0,0.0,83,0.00,CLR,,0.00,WeatherDisplay:10.37,2013-02-26 00:53:00,
2013-02-25 18:58:00,30.8,26.2,30.03,East,89,0.0,0.0,83,0.00,CLR,,0.00,WeatherDisplay:10.37,2013-02-26 00:58:00,
2013-02-25 19:03:00,30.7,26.4,30.03,East,89,0.0,0.0,84,0.00,CLR,,0.00,WeatherDisplay:10.37,2013-02-26 01:03:00,
2013-02-25 19:08:00,30.5,26.2,30.03,East,89,0.0,0.0,84,0.00,CLR,,0.00,WeatherDisplay:10.37,2013-02-26 01:08:00,
2013-02-25 19:13:00,30.4,26.4,30.03,East,89,0.0,0.0,85,0.00,CLR,,0.00,WeatherDisplay:10.37,2013-02-26 01:13:00,
2013-02-25 19:18:00,30.4,27.0,30.03,East,89,0.0,0.0,87,0.00,CLR,,0.00,WeatherDisplay:10.37,2013-02-26 01:18:00,
2013-02-25 19:23:00,30.7,27.8,30.03,East,89,0.0,0.0,89,0.00,CLR,,0.00,WeatherDisplay:10.37,2013-02-26 01:23:00,
2013-02-25 19:28:00,30.7,27.6,30.02,East,89,0.0,0.0,88,0.00,CLR,,0.00,WeatherDisplay:10.37,2013-02-26 01:28:00,
2013-02-25 19:33:00,30.8,27.9,30.02,East,89,0.0,0.0,89,0.00,CLR,,0.00,WeatherDisplay:10.37,2013-02-26 01:33:00,
2013-02-25 19:38:00,30.9,28.0,30.01,East,89,0.0,0.0,89,0.00,CLR,,0.00,WeatherDisplay:10.37,2013-02-26 01:38:00,
2013-02-25 19:43:00,31.0,28.1,30.01,East,89,0.0,0.0,89,0.00,CLR,,0.00,WeatherDisplay:10.37,2013-02-26 01:43:00,
2013-02-25 19:48:00,31.3,28.2,30.01,ENE,57,1.5,3.4,88,0.00,CLR,,0.00,WeatherDisplay:10.37,2013-02-26 01:48:00,
2013-02-25 19:53:00,31.5,28.1,30.01,NE,52,2.4,5.3,87,0.00,CLR,,0.00,WeatherDisplay:10.37,2013-02-26 01:53:00,
2013-02-25 19:58:00,31.6,27.9,30.00,ESE,108,1.8,4.6,86,0.00,CLR,,0.00,WeatherDisplay:10.37,2013-02-26 01:58:00,
2013-02-25 20:03:00,31.8,28.1,30.00,East,96,2.0,3.5,86,0.00,CLR,,0.00,WeatherDisplay:10.37,2013-02-26 02:03:00,
2013-02-25 20:08:00,31.5,27.8,30.00,ENE,78,2.6,3.5,86,0.00,CLR,,0.00,WeatherDisplay:10.37,2013-02-26 02:08:00,
2013-02-25 20:13:00,31.7,28.0,30.00,ENE,64,3.5,4.6,86,0.00,CLR,,0.00,WeatherDisplay:10.37,2013-02-26 02:13:00,
2013-02-25 20:18:00,31.5,27.8,30.00,NE,51,1.6,3.8,86,0.00,CLR,,0.00,WeatherDisplay:10.37,2013-02-26 02:18:00,
2013-02-25 20:23:00,31.5,27.8,29.99,East,81,2.2,4.6,86,0.00,CLR,,0.00,WeatherDisplay:10.37,2013-02-26 02:23:00,
2013-02-25 20:28:00,31.5,28.1,29.99,ENE,65,3.2,4.6,87,0.00,CLR,,0.00,WeatherDisplay:10.37,2013-02-26 02:28:00,
2013-02-25 20:33:00,31.3,27.9,29.99,East,99,3.1,4.8,87,0.00,CLR,,0.00,WeatherDisplay:10.37,2013-02-26 02:33:00,
2013-02-25 20:38:00,31.2,27.8,29.99,ENE,71,3.1,6.9,87,0.00,CLR,,0.00,WeatherDisplay:10.37,2013-02-26 02:38:00,
2013-02-25 20:43:00,31.1,27.7,29.99,East,89,2.0,4.6,87,0.00,CLR,,0.00,WeatherDisplay:10.37,2013-02-26 02:43:00,
2013-02-25 20:48:00,31.0,27.9,30.00,East,81,4.5,6.9,88,0.00,CLR,,0.00,WeatherDisplay:10.37,2013-02-26 02:48:00,
2013-02-25 20:53:00,31.1,28.0,30.00,ENE,75,5.1,8.1,88,0.00,CLR,,0.00,WeatherDisplay:10.37,2013-02-26 02:53:00,
2013-02-25 20:58:00,31.1,28.0,30.00,ENE,64,6.2,6.9,88,0.00,CLR,,0.00,WeatherDisplay:10.37,2013-02-26 02:58:00,
2013-02-25 21:03:00,31.1,28.0,30.00,East,89,3.2,5.2,88,0.00,CLR,,0.00,WeatherDisplay:10.37,2013-02-26 03:03:00,
2013-02-25 21:08:00,30.9,27.8,30.01,ENE,67,2.4,3.5,88,0.00,CLR,,0.00,WeatherDisplay:10.37,2013-02-26 03:08:00,
2013-02-25 21:13:00,31.0,27.9,30.01,East,82,0.0,2.3,88,0.00,CLR,,0.00,WeatherDisplay:10.37,2013-02-26 03:13:00,
2013-02-25 21:18:00,30.8,27.7,30.01,ENE,69,2.0,3.5,88,0.00,CLR,,0.00,WeatherDisplay:10.37,2013-02-26 03:18:00,
2013-02-25 21:23:00,30.6,27.7,30.00,NE,54,3.7,5.8,89,0.00,CLR,,0.00,WeatherDisplay:10.37,2013-02-26 03:23:00,
2013-02-25 21:28:00,30.3,27.7,30.00,NE,36,4.8,6.9,90,0.00,CLR,,0.00,WeatherDisplay:10.37,2013-02-26 03:28:00,
2013-02-25 21:33:00,30.2,27.6,30.00,ENE,58,3.6,8.1,90,0.00,CLR,,0.00,WeatherDisplay:10.37,2013-02-26 03:33:00,
2013-02-25 21:38:00,30.2,27.9,30.00,NE,54,4.0,8.1,91,0.00,CLR,,0.00,WeatherDisplay:10.37,2013-02-26 03:38:00,
2013-02-25 21:43:00,30.0,27.7,30.00,ENE,65,4.6,5.8,91,0.00,CLR,,0.00,WeatherDisplay:10.37,2013-02-26 03:43:00,
2013-02-25 21:48:00,30.0,27.7,30.00,East,98,2.6,5.8,91,0.00,CLR,,0.00,WeatherDisplay:10.37,2013-02-26 03:48:00,
2013-02-25 21:53:00,30.0,27.7,30.01,ESE,102,2.3,4.6,91,0.00,CLR,,0.00,WeatherDisplay:10.37,2013-02-26 03:53:00,
2013-02-25 21:58:00,30.0,27.7,30.01,ENE,78,2.8,5.8,91,0.00,CLR,,0.00,WeatherDisplay:10.37,2013-02-26 03:58:00,
2013-02-25 22:03:00,30.1,27.8,30.01,ENE,65,3.3,5.8,91,0.00,CLR,,0.00,WeatherDisplay:10.37,2013-02-26 04:03:00,
2013-02-25 22:08:00,30.0,27.7,30.01,East,82,2.1,2.3,91,0.00,CLR,,0.00,WeatherDisplay:10.37,2013-02-26 04:08:00,
2013-02-25 22:13:00,29.9,27.6,30.02,ESE,113,2.8,4.6,91,0.00,CLR,,0.00,WeatherDisplay:10.37,2013-02-26 04:13:00,
2013-02-25 22:18:00,29.8,27.5,30.02,ENE,67,1.8,2.3,91,0.00,CLR,,0.00,WeatherDisplay:10.37,2013-02-26 04:18:00,
2013-02-25 22:23:00,29.8,27.8,30.01,ENE,71,0.0,1.1,92,0.00,CLR,,0.00,WeatherDisplay:10.37,2013-02-26 04:23:00,
2013-02-25 22:28:00,29.8,27.8,30.02,ENE,71,0.0,0.0,92,0.00,CLR,,0.00,WeatherDisplay:10.37,2013-02-26 04:28:00,
2013-02-25 22:33:00,29.8,27.5,30.01,ENE,71,0.0,0.0,91,0.00,CLR,,0.00,WeatherDisplay:10.37,2013-02-26 04:33:00,
2013-02-25 22:38:00,30.0,27.7,30.01,ESE,110,1.3,3.5,91,0.00,CLR,,0.00,WeatherDisplay:10.37,2013-02-26 04:38:00,
2013-02-25 22:43:00,29.9,27.6,30.01,ESE,113,1.8,4.6,91,0.00,CLR,,0.00,WeatherDisplay:10.37,2013-02-26 04:43:00,
2013-02-25 22:48:00,29.8,27.5,30.01,East,100,1.6,2.5,91,0.00,CLR,,0.00,WeatherDisplay:10.37,2013-02-26 04:48:00,
2013-02-25 22:53:00,29.8,27.5,30.01,East,79,0.6,1.1,91,0.00,CLR,,0.00,WeatherDisplay:10.37,2013-02-26 04:53:00,
2013-02-25 22:58:00,29.6,27.3,30.01,East,79,0.0,0.0,91,0.00,CLR,,0.00,WeatherDisplay:10.37,2013-02-26 04:58:00,
2013-02-25 23:00:00,29.6,27.3,30.01,East,93,0.0,0.0,91,0.00,CLR,CLR,0.00,WeatherDisplay:10.37,2013-02-26 05:00:00,
2013-02-25 23:05:00,29.6,27.3,30.01,ESE,117,2.7,4.6,91,0.00,CLR,,0.00,WeatherDisplay:10.37,2013-02-26 05:05:00,
2013-02-25 23:10:00,29.6,27.0,30.00,ENE,64,2.7,5.8,90,0.00,CLR,,0.00,WeatherDisplay:10.37,2013-02-26 05:10:00,
2013-02-25 23:15:00,29.6,27.0,30.00,ENE,60,2.4,3.5,90,0.00,CLR,,0.00,WeatherDisplay:10.37,2013-02-26 05:15:00,
2013-02-25 23:20:00,29.6,27.0,30.00,East,93,2.9,3.5,90,0.00,CLR,,0.00,WeatherDisplay:10.37,2013-02-26 05:20:00,
2013-02-25 23:25:00,29.5,26.9,29.99,ENE,68,3.6,4.6,90,0.00,CLR,,0.00,WeatherDisplay:10.37,2013-02-26 05:25:00,
2013-02-25 23:30:00,29.4,26.8,29.99,ENE,72,1.3,3.5,90,0.00,CLR,,0.00,WeatherDisplay:10.37,2013-02-26 05:30:00,
2013-02-25 23:35:00,29.2,26.6,29.99,ENE,72,4.1,5.2,90,0.00,CLR,,0.00,WeatherDisplay:10.37,2013-02-26 05:35:00,
2013-02-25 23:40:00,29.2,26.6,29.98,East,93,3.6,5.8,90,0.00,CLR,,0.00,WeatherDisplay:10.37,2013-02-26 05:40:00,
2013-02-25 23:45:00,29.4,26.8,29.98,ESE,105,2.9,4.6,90,0.00,CLR,,0.00,WeatherDisplay:10.37,2013-02-26 05:45:00,
2013-02-25 23:50:00,29.3,26.7,29.98,ENE,61,3.7,5.9,90,0.00,CLR,,0.00,WeatherDisplay:10.37,2013-02-26 05:50:00,
2013-02-25 23:55:00,29.3,26.5,29.98,ENE,78,3.2,4.6,89,0.00,CLR,,0.00,WeatherDisplay:10.37,2013-02-26 05:55:00,